• In Hungary
  • List of Countries
  • For 7 days
  • Water Temperature
  • Satellite Maps
  • Weather Map
  • News
  • Weather Widgets
  • user-avatar
    Login

    Hourly Weather Pamplona

    Today, 20 September, Thursday

    Time Temperature Precipitation Wind Pressure Humidity
    00:00 +20°C° 0 mm 1 mps 723 mmHg 87%
    01:00 +20°C° 0 mm 1 mps 723 mmHg 87%
    02:00 +20°C° 0 mm 1 mps 723 mmHg 87%
    03:00 +19°C° 0 mm 1 mps 722 mmHg 87%
    04:00 +19°C° 0 mm 1 mps 722 mmHg 87%
    05:00 +19°C° 0 mm 1 mps 722 mmHg 86%
    06:00 +19°C° 0 mm 1 mps 722 mmHg 85%
    07:00 +21°C° 0 mm 1 mps 722 mmHg 77%
    08:00 +23°C° 0 mm 1 mps 722 mmHg 69%
    09:00 +26°C° 0 mm 2 mps 723 mmHg 61%
    10:00 +27°C° 0 mm 2 mps 722 mmHg 55%
    11:00 +29°C° 0 mm 2 mps 722 mmHg 48%
    12:00 +31°C° 0 mm 2 mps 722 mmHg 41%
    13:00 +31°C° 0 mm 2 mps 722 mmHg 39%
    14:00 +31°C° 0 mm 2 mps 721 mmHg 37%
    15:00 +32°C° 0 mm 2 mps 721 mmHg 36%
    16:00 +30°C° 0 mm 2 mps 720 mmHg 42%
    17:00 +28°C° 0 mm 2 mps 720 mmHg 49%
    18:00 +26°C° 0 mm 1 mps 720 mmHg 55%
    19:00 +25°C° 0 mm 1 mps 720 mmHg 59%
    20:00 +24°C° 0 mm 1 mps 720 mmHg 63%
    21:00 +23°C° 0 mm 1 mps 721 mmHg 67%
    22:00 +22°C° 0 mm 1 mps 721 mmHg 70%
    23:00 +21°C° 0 mm 1 mps 721 mmHg 73%

    Tomorrow, 21 September, Friday

    Time Temperature Precipitation Wind Pressure Humidity
    00:00 +21°C° 0 mm 1 mps 720 mmHg 75%
    01:00 +20°C° 0 mm 1 mps 720 mmHg 77%
    02:00 +20°C° 0 mm 1 mps 720 mmHg 79%
    03:00 +20°C° 0 mm 1 mps 721 mmHg 81%
    04:00 +19°C° 0 mm 1 mps 721 mmHg 83%
    05:00 +19°C° 0 mm 1 mps 721 mmHg 84%
    06:00 +19°C° 0 mm 1 mps 721 mmHg 86%
    07:00 +20°C° 0 mm 1 mps 722 mmHg 80%
    08:00 +21°C° 0 mm 2 mps 722 mmHg 74%
    09:00 +23°C° 0 mm 2 mps 723 mmHg 69%
    10:00 +25°C° 0 mm 2 mps 723 mmHg 61%
    11:00 +26°C° 0 mm 2 mps 723 mmHg 54%
    12:00 +28°C° 0 mm 2 mps 723 mmHg 47%
    13:00 +28°C° 0 mm 3 mps 723 mmHg 47%
    14:00 +28°C° 0 mm 3 mps 723 mmHg 47%
    15:00 +28°C° 0 mm 3 mps 722 mmHg 48%
    16:00 +26°C° 0 mm 3 mps 722 mmHg 57%
    17:00 +24°C° 0 mm 2 mps 722 mmHg 66%
    18:00 +21°C° 0 mm 2 mps 722 mmHg 75%
    19:00 +20°C° 0 mm 2 mps 723 mmHg 80%
    20:00 +19°C° 0 mm 2 mps 723 mmHg 84%
    21:00 +19°C° 0 mm 1 mps 724 mmHg 88%
    22:00 +18°C° 0 mm 1 mps 724 mmHg 89%
    23:00 +18°C° 0 mm 1 mps 724 mmHg 89%

    Day after tomorrow, 22 September, Saturday

    Time Temperature Precipitation Wind Pressure Humidity
    00:00 +16°C° 0 mm 1 mps 724 mmHg 89%
    01:00 +16°C° 0 mm 1 mps 724 mmHg 88%
    02:00 +16°C° 0 mm 1 mps 724 mmHg 87%
    03:00 +16°C° 0 mm 1 mps 724 mmHg 87%
    04:00 +16°C° 0 mm 1 mps 724 mmHg 85%
    05:00 +16°C° 0 mm 1 mps 723 mmHg 84%
    06:00 +16°C° 0 mm 1 mps 723 mmHg 82%
    07:00 +19°C° 0 mm 1 mps 724 mmHg 72%
    08:00 +22°C° 0 mm 1 mps 724 mmHg 62%
    09:00 +24°C° 0 mm 1 mps 725 mmHg 52%
    10:00 +26°C° 0 mm 1 mps 725 mmHg 47%
    11:00 +28°C° 0 mm 1 mps 725 mmHg 42%
    12:00 +30°C° 0 mm 1 mps 725 mmHg 36%
    13:00 +31°C° 0 mm 1 mps 724 mmHg 35%
    14:00 +31°C° 0 mm 1 mps 724 mmHg 34%
    15:00 +31°C° 0 mm 1 mps 724 mmHg 32%
    16:00 +29°C° 0 mm 1 mps 724 mmHg 41%
    17:00 +27°C° 0 mm 1 mps 724 mmHg 50%
    18:00 +25°C° 0 mm 1 mps 723 mmHg 59%
    19:00 +23°C° 0 mm 1 mps 724 mmHg 64%
    20:00 +22°C° 0 mm 1 mps 724 mmHg 68%
    21:00 +21°C° 0 mm 1 mps 724 mmHg 73%
    22:00 +21°C° 0 mm 1 mps 724 mmHg 73%
    23:00 +21°C° 0 mm 1 mps 724 mmHg 73%

    23 September, Sunday

    Time Temperature Precipitation Wind Pressure Humidity
    00:00 +20°C° 0 mm 1 mps 724 mmHg 74%
    01:00 +20°C° 0 mm 1 mps 724 mmHg 72%
    02:00 +20°C° 0 mm 1 mps 723 mmHg 70%
    03:00 +20°C° 0 mm 1 mps 723 mmHg 68%
    04:00 +20°C° 0 mm 1 mps 723 mmHg 66%
    05:00 +20°C° 0 mm 1 mps 723 mmHg 64%
    06:00 +20°C° 0 mm 1 mps 723 mmHg 62%
    07:00 +22°C° 0 mm 1 mps 723 mmHg 57%
    08:00 +24°C° 0 mm 1 mps 723 mmHg 52%
    09:00 +27°C° 0 mm 1 mps 723 mmHg 46%
    10:00 +28°C° 0 mm 2 mps 724 mmHg 42%
    11:00 +30°C° 0 mm 2 mps 724 mmHg 37%
    12:00 +32°C° 0 mm 2 mps 724 mmHg 32%
    13:00 +31°C° 0 mm 3 mps 724 mmHg 35%
    14:00 +32°C° 0 mm 4 mps 724 mmHg 37%
    15:00 +30°C° 0 mm 5 mps 724 mmHg 40%
    16:00 +27°C° 0 mm 4 mps 724 mmHg 52%
    17:00 +25°C° 0 mm 4 mps 724 mmHg 64%
    18:00 +21°C° 0 mm 4 mps 724 mmHg 76%
    19:00 +20°C° 0.1 mm 4 mps 725 mmHg 79%
    20:00 +20°C° 0.1 mm 4 mps 726 mmHg 83%
    21:00 +19°C° 0.1 mm 4 mps 727 mmHg 87%
    22:00 +19°C° 0 mm 4 mps 727 mmHg 87%
    23:00 +18°C° 0 mm 4 mps 727 mmHg 86%

    24 September, Monday

    Time Temperature Precipitation Wind Pressure Humidity
    00:00 +17°C° 0 mm 4 mps 727 mmHg 86%
    01:00 +17°C° 0 mm 4 mps 727 mmHg 86%
    02:00 +15°C° 0 mm 4 mps 727 mmHg 85%
    03:00 +15°C° 0 mm 4 mps 727 mmHg 85%
    04:00 +14°C° 0 mm 4 mps 727 mmHg 85%
    05:00 +13°C° 0 mm 4 mps 727 mmHg 85%
    06:00 +13°C° 0 mm 4 mps 727 mmHg 85%
    07:00 +13°C° 0 mm 4 mps 727 mmHg 79%
    08:00 +14°C° 0 mm 4 mps 727 mmHg 73%
    09:00 +14°C° 0 mm 4 mps 727 mmHg 68%
    10:00 +17°C° 0 mm 4 mps 727 mmHg 60%
    11:00 +17°C° 0 mm 5 mps 727 mmHg 53%
    12:00 +19°C° 0 mm 5 mps 727 mmHg 46%
    13:00 +19°C° 0 mm 5 mps 727 mmHg 46%
    14:00 +19°C° 0 mm 5 mps 726 mmHg 46%
    15:00 +19°C° 0 mm 5 mps 726 mmHg 47%
    16:00 +16°C° 0 mm 5 mps 726 mmHg 52%
    17:00 +15°C° 0 mm 5 mps 726 mmHg 57%
    18:00 +13°C° 0 mm 4 mps 726 mmHg 62%
    19:00 +12°C° 0 mm 4 mps 726 mmHg 64%
    20:00 +11°C° 0 mm 4 mps 726 mmHg 66%
    21:00 +11°C° 0 mm 4 mps 727 mmHg 68%
    22:00 +10°C° 0 mm 3 mps 726 mmHg 69%
    23:00 +9°C° 0 mm 3 mps 726 mmHg 70%

    25 September, Tuesday

    Time Temperature Precipitation Wind Pressure Humidity
    00:00 +9°C° 0 mm 3 mps 726 mmHg 70%
    01:00 +8°C° 0 mm 3 mps 726 mmHg 72%
    02:00 +8°C° 0 mm 2 mps 726 mmHg 73%
    03:00 +8°C° 0 mm 2 mps 725 mmHg 74%
    04:00 +7°C° 0 mm 2 mps 725 mmHg 75%
    05:00 +7°C° 0 mm 2 mps 725 mmHg 76%
    06:00 +7°C° 0 mm 2 mps 725 mmHg 77%
    07:00 +10°C° 0 mm 2 mps 725 mmHg 68%
    08:00 +13°C° 0 mm 2 mps 726 mmHg 58%
    09:00 +16°C° 0 mm 2 mps 726 mmHg 49%
    10:00 +19°C° 0 mm 1 mps 726 mmHg 44%
    11:00 +22°C° 0 mm 1 mps 726 mmHg 40%
    12:00 +24°C° 0 mm 1 mps 725 mmHg 35%
    13:00 +25°C° 0 mm 2 mps 725 mmHg 35%
    14:00 +25°C° 0 mm 2 mps 724 mmHg 35%
    15:00 +26°C° 0 mm 2 mps 724 mmHg 34%
    16:00 +24°C° 0 mm 2 mps 724 mmHg 40%
    17:00 +21°C° 0 mm 2 mps 724 mmHg 45%
    18:00 +18°C° 0 mm 2 mps 723 mmHg 51%
    19:00 +18°C° 0 mm 2 mps 724 mmHg 50%
    20:00 +17°C° 0 mm 3 mps 724 mmHg 50%
    21:00 +17°C° 0 mm 3 mps 724 mmHg 50%
    22:00 +17°C° 0 mm 3 mps 724 mmHg 55%
    23:00 +17°C° 0 mm 3 mps 724 mmHg 59%
    Show more